星链-11694 (STARLINK-11694)

导读 | 豆包AI

STARLINK-11694是美国太空探索技术公司Starlink卫星互联网项目的成员,于2025年6月3日发射入轨,归属美国所有。它属于Starlink星座组网的低轨卫星,旨在为全球范围内用户提供低延迟、高带宽的宽带互联网接入服务,进一步扩充Starlink星座的服务覆盖容量与网络稳定性,助力星链全球互联网络的搭建完善。

基本信息
目录编号:
64243
目录名称:
STARLINK-11694
国际标识:
2025-119L
轨道中心:
EARTH
卫星名称:
星链-11694
卫星全名:
星链-11694 (STARLINK-11694)
卫星状态:
在轨 (已飞行331 天)
发射日期:
2025-06-03 UTC
国别 :
美国 (US)
星等 :
--
轨道信息
数据来源 国际轨道数据
星历时间: 2026-04-30T23:52:15+0800
6小时前
查看轨道信息
半长轴: 6734.577km
偏心率: 0.0000555
轨道倾角: 43.000°
近地点辐角 242.910°
升交点赤经 256.276°
平近点角 117.171°
近地点: 356.066km
远地点: 356.814km
周期: 91.670分钟
每日圈数: 15.708593
详细信息
固有亮度:
5
最大亮度:
2.5
卫星平台:
Starlink V1.0
覆盖范围:
全球
运营商:
太空探索技术公司
运营商所在国:
美国
制造商(研发单位):
太空探索技术公司
制造商所在国:
美国
使用方式:
暂无
卫星简介
Starlink 计划是 SpaceX 推出的全球卫星互联网项目,通过发射低轨道卫星,为全球尤其是偏远地区提供高速、低延迟的互联网服务。自 2019 年起,Starlink 已部署数千颗卫星,旨在缩小全球数字鸿沟,推动互联网普及。该项目还为军事、航空等行业提供通信支持,带来广泛经济效益。
2D轨道图
3D轨道图
轨道高度分析图
轨道倾角分析图
轨道综合分析图
查看轨道综合分析图